Regional Weather Roundup
Issued by NWS Sterling, VA

Home | Current Version | Previous Version | Graphics & Text | Print | Product List | Glossary On
Versions: 1 2 3 4 5 6 7 8 9 10 11 12 13 14 15 16 17 18 19 20 21 22 23 24 25 26 27 28 29 30 31 32 33 34 35 36 37 38 39 40 41 42 43 44 45 46 47 48 49 50
000
ASUS41 KLWX 040510
RWRLWX

REGIONAL WEATHER ROUNDUP
NATIONAL WEATHER SERVICE BALTIMORE MD/WASHINGTON DC
100 AM EDT SAT JUL 04 2015

Note: "FAIR" indicates few or no clouds below 12,000 feet
with no significant weather and/or obstructions to visibility.
 TC=TEMPERATURE CELSIUS

 * =Non NWS site. Station does not report precipitation (e.g. rain,
    snow, etc.), thunder, or fog.

DCZ001-MDZ009-015-VAZ040>042-051-053>054-040600-
WASHINGTON METRO

CITY           SKY/WX    TMP DP  RH WIND       PRES   REMARKS
WASHINGTON NAT CLOUDY    74  67  78 CALM      29.93F
DULLES         LGT RAIN  69  65  86 CALM      29.92F
ANDREWS AFB    CLOUDY    69  68  96 E3        29.91F
FT BELVOIR     CLOUDY    68  66  95 CALM      29.92F
QUANTICO       CLOUDY    73  66  78 SE5       29.92F
COLLEGE PARK*  CLOUDY    70  68  94 CALM      29.92F
LEESBURG*      CLOUDY    72  68  88 S5        29.94F
MANASSAS*      CLOUDY    70  70 100 CALM        N/A
GAITHERSBURG*  CLOUDY    70  63  78 SE6       29.97F

$$

MDZ006>007-011-014-040600-
BALTIMORE METRO

CITY           SKY/WX    TMP DP  RH WIND       PRES   REMARKS
BWI AIRPORT    LGT RAIN  71  64  78 SE3       29.93F
MD SCIENCE CTR   N/A     74  63  68 MISG      29.93F
MARTIN STATE   LGT RAIN  72  68  88 E6        29.94F
ANNAPOLIS      CLOUDY    73  66  78 SE13      29.92F
FORT MEADE*    CLOUDY    66  63  88 E3        29.95F

$$

MDZ012-015-019>023-040600-
MARYLAND EASTERN SHORE

CITY           SKY/WX    TMP DP  RH WIND       PRES   REMARKS
OCEAN CITY     CLOUDY    73  66  78 SE10      29.92F
SALISBURY      LGT RAIN  70  68  93 NE5       29.92F
BAY BRIDGE AP*   N/A     72  64  78 SE6       29.93F
CAMBRIDGE*     CLOUDY    72  68  88 CALM      29.92S
EASTON*        CLOUDY    71  70  96 CALM      29.97F

$$

MDZ017>025-040600-
SOUTHERN MARYLAND

CITY           SKY/WX    TMP DP  RH WIND       PRES   REMARKS
PATUXENT RIVER LGT RAIN  73  69  87 SE12      29.91S
ST INIGOES     LGT RAIN  73  68  84 E5        29.90S
LEONARDTOWN*   CLOUDY    70  64  83 CALM      29.92F

$$

MDZ003>005-040600-
NORTH CENTRAL MARYLAND

CITY           SKY/WX    TMP DP  RH WIND       PRES   REMARKS
FREDERICK*     CLOUDY    70  66  88 CALM      29.96S
HAGERSTOWN APT LGT RAIN  69  63  81 S10       29.94S
WESTMINSTER*   CLOUDY    72  64  78 SE5       29.95S

$$

MDZ501>502-040600-
WESTERN MARYLAND

CITY           SKY/WX    TMP DP  RH WIND       PRES   REMARKS
OAKLAND*       CLOUDY    59 N/A N/A SE7       29.97S FOG
CUMBERLAND*    CLOUDY    66  66 100 CALM      29.96S

$$

VAZ025>031-040600-
SHENANDOAH VALLEY

CITY           SKY/WX    TMP DP  RH WIND       PRES   REMARKS
WINCHESTER*    RAIN      70  68  94 S3        29.93F
FRONT ROYAL*   CLOUDY    68  64  88 CALM      29.92S
LURAY*         CLOUDY    68  68 100 CALM      29.93F FOG
NEW MARKET*    CLOUDY    66  66  99 CALM      29.92F
STAUNTON*      CLOUDY    69  66  92 CALM      29.96S FOG
WAYNESBORO*    CLOUDY    66  65  97 CALM      29.95F

$$

WVZ021-048>050-054>055-040600-
EASTERN WEST VIRGINIA PANHANDLE

CITY           SKY/WX    TMP DP  RH WIND       PRES   REMARKS
MARTINSBURG    CLOUDY    68  66  93 CALM      29.93F FOG
PETERSBURG*    DRIZZLE   65  62  90 CALM      29.94S

$$

VAZ036>039-050-040600-
CENTRAL FOOTHILLS

CITY           SKY/WX    TMP DP  RH WIND       PRES   REMARKS
CHARLOTTESVILL CLOUDY    69  66  90 N5        29.92F FOG
CULPEPER*      CLOUDY    67  67  99 CALM      29.93F FOG
ORANGE*        CLOUDY    70  68  94 CALM      29.94S
GORDONSVILLE*  CLOUDY    68  66  94 NW3       29.92S FOG
WARRENTON*     MOCLDY    69  69  99 CALM      29.92S FOG

$$

VAZ055>057-040600-
NORTH AND CENTRAL PIEDMONT

CITY           SKY/WX    TMP DP  RH WIND       PRES   REMARKS
FREDERICKSBRG* CLOUDY    71  71 100 CALM      29.91S
STAFFORD*      CLOUDY    68  65  90 CALM      29.95F

$$

NCZ024-NYZ072-PAZ021-071-VAZ022-071-040600-
OTHER REGIONAL OBSERVATIONS

CITY           SKY/WX    TMP DP  RH WIND       PRES   REMARKS
NEW YORK CITY  MOCLDY    71  58  63 CALM      30.01R
PHILADELPHIA   CLOUDY    72  64  76 SE3       29.96F
PITTSBURGH     CLOUDY    67  65  93 NE3       29.89S FOG
ROANOKE        CLOUDY    68  67  96 CALM      29.96F FOG
RICHMOND       LGT RAIN  71  69  93 NE6       29.88F
RALEIGH        CLOUDY    72  70  93 W8        29.92R

$$

ANZ530>537-040600-
MARINE OBSERVATIONS

STATION/POSITION TIME  TEMP    WIND        PRES
                       AIR SEA DIR/SP/G
                 (UTC) (F)     (DEG/KT/KT) (MB)
THOMAS PT LIGHT  NOT AVBL
BALT KEY BRIDGE  0400   74     120/ 10/ 13 1013.4F
COVE POINT       0400   73     160/ 14/ 20 1013.7F
LEWISETTA        0400   74 79  140/  9/ 12 1012.2F
SOLOMONS ISLAND  0400      80                N/A
PINEY POINT      0400          160/ 15/ 18   N/A

$$




USA.gov is the U.S. government's official web portal to all federal, state and local government web resources and services.